Location: Cluny
(50.9333°N, 112.8167°W)
Time: 01:43:00
(UTC-07:00)

Hamsat - Visible Passes

Search period start: 22 November 2014 00:00
Search period end: 02 December 2014 00:00
Orbit: 592 x 627 km, 97.6° (Epoch: 21 November)

Date Brightness Start Highest point End Pass type
(mag) Time Alt. Az. Time Alt. Az. Time Alt. Az.
22 Nov ? 05:12:14 10° NE 05:14:55 16° E 05:17:35 10° SE visible
22 Nov ? 06:47:00 10° N 06:51:18 68° WNW 06:55:37 10° SSW visible
22 Nov ? 17:45:03 10° S 17:49:07 50° W 17:53:16 10° NNW visible
23 Nov ? 05:25:50 10° NE 05:29:10 21° E 05:32:30 10° SE visible
23 Nov ? 07:01:11 10° N 07:05:22 50° WNW 07:09:34 10° SW visible
23 Nov ? 17:59:24 10° SSW 18:03:17 36° W 18:07:14 10° NNW visible
24 Nov ? 05:39:37 10° NE 05:43:23 28° E 05:47:09 10° SSE visible
24 Nov ? 07:15:24 10° N 07:19:24 37° WNW 07:23:24 10° SW visible
24 Nov ? 18:13:53 10° SSW 18:17:28 27° W 18:21:07 10° NW visible
25 Nov ? 05:53:30 10° NNE 05:57:34 38° E 06:01:37 10° SSE visible
25 Nov ? 18:28:33 10° SW 18:31:41 20° W 18:34:51 10° NW visible
26 Nov ? 06:07:27 10° NNE 06:11:42 52° E 06:15:57 10° S visible
26 Nov ? 17:05:18 10° SSE 17:09:29 69° ENE 17:13:44 10° N visible
26 Nov ? 18:43:28 10° WSW 18:45:55 15° W 18:48:23 10° NW visible
27 Nov ? 06:21:27 10° NNE 06:25:49 71° ESE 06:30:09 10° S visible
27 Nov ? 17:19:18 10° SSE 17:23:32 87° WSW 17:27:50 10° NNW visible
27 Nov ? 18:59:00 10° W 19:00:10 11° W 19:01:20 10° WNW visible
28 Nov ? 05:01:23 10° ENE 05:03:20 13° E 05:05:18 10° ESE visible
28 Nov ? 06:35:30 10° NNE 06:39:53 85° WNW 06:44:15 10° SSW visible
28 Nov ? 17:33:25 10° S 17:37:36 64° WSW 17:41:52 10° NNW visible
29 Nov ? 05:14:40 10° NE 05:17:34 17° E 05:20:28 10° SE visible
29 Nov ? 06:49:36 10° N 06:53:55 63° WNW 06:58:13 10° SSW visible
29 Nov ? 17:47:38 10° S 17:51:42 46° W 17:55:50 10° NNW visible
30 Nov ? 05:28:17 10° NE 05:31:46 23° E 05:35:14 10° SE visible
30 Nov ? 07:03:44 10° N 07:07:55 46° WNW 07:12:05 10° SW visible
30 Nov ? 18:01:57 10° SSW 18:05:48 34° W 18:09:44 10° NNW visible
01 Dec ? 05:42:02 10° NNE 05:45:55 30° E 05:49:47 10° SSE visible
01 Dec ? 07:17:55 10° N 07:21:53 35° WNW 07:25:50 10° SW visible
01 Dec ? 18:16:25 10° SSW 18:19:57 25° W 18:23:32 10° NW visible
